• In France
  • List of Countries
  • For 7 days
  • Water Temperature
  • Satellite Maps
  • Weather Map
  • Weather Widgets
  • user-avatar
    Login

    Hourly Weather Korhogo

    Today, 21 May, Monday

    Time Temperature Precipitation Wind Pressure Humidity
    00:00 +30°C° 0 mm 3 mps 724 mmHg 56%
    01:00 +30°C° 0 mm 3 mps 724 mmHg 58%
    02:00 +29°C° 0 mm 3 mps 724 mmHg 61%
    03:00 +29°C° 0 mm 3 mps 724 mmHg 64%
    04:00 +28°C° 0 mm 3 mps 724 mmHg 68%
    05:00 +27°C° 0 mm 3 mps 724 mmHg 71%
    06:00 +27°C° 0 mm 3 mps 724 mmHg 75%
    07:00 +28°C° 0 mm 3 mps 725 mmHg 68%
    08:00 +30°C° 0 mm 3 mps 725 mmHg 62%
    09:00 +33°C° 0 mm 3 mps 726 mmHg 55%
    10:00 +36°C° 0 mm 2 mps 726 mmHg 46%
    11:00 +39°C° 0 mm 2 mps 725 mmHg 38%
    12:00 +42°C° 0 mm 1 mps 725 mmHg 29%
    13:00 +43°C° 0 mm 1 mps 724 mmHg 26%
    14:00 +43°C° 0 mm 1 mps 724 mmHg 23%
    15:00 +45°C° 0 mm 2 mps 723 mmHg 20%
    16:00 +42°C° 0 mm 2 mps 723 mmHg 22%
    17:00 +41°C° 0 mm 2 mps 722 mmHg 23%
    18:00 +40°C° 0 mm 2 mps 722 mmHg 24%
    19:00 +38°C° 0 mm 2 mps 723 mmHg 30%
    20:00 +37°C° 0 mm 2 mps 723 mmHg 35%
    21:00 +35°C° 0 mm 3 mps 723 mmHg 40%
    22:00 +34°C° 0.2 mm 3 mps 724 mmHg 48%
    23:00 +31°C° 0.2 mm 3 mps 724 mmHg 55%

    Tomorrow, 22 May, Tuesday

    Time Temperature Precipitation Wind Pressure Humidity
    00:00 +30°C° 0.2 mm 3 mps 724 mmHg 63%
    01:00 +29°C° 0 mm 3 mps 724 mmHg 66%
    02:00 +29°C° 0 mm 3 mps 724 mmHg 69%
    03:00 +28°C° 0 mm 4 mps 724 mmHg 72%
    04:00 +28°C° 0 mm 3 mps 724 mmHg 75%
    05:00 +27°C° 0 mm 3 mps 724 mmHg 78%
    06:00 +27°C° 0 mm 2 mps 724 mmHg 81%
    07:00 +28°C° 0 mm 3 mps 725 mmHg 74%
    08:00 +30°C° 0 mm 3 mps 725 mmHg 68%
    09:00 +32°C° 0 mm 4 mps 726 mmHg 61%
    10:00 +35°C° 0 mm 3 mps 725 mmHg 52%
    11:00 +37°C° 0 mm 3 mps 725 mmHg 44%
    12:00 +40°C° 0 mm 3 mps 725 mmHg 35%
    13:00 +42°C° 0 mm 3 mps 724 mmHg 31%
    14:00 +43°C° 0 mm 2 mps 723 mmHg 27%
    15:00 +45°C° 0 mm 2 mps 723 mmHg 23%
    16:00 +42°C° 0 mm 2 mps 723 mmHg 26%
    17:00 +41°C° 0 mm 2 mps 723 mmHg 29%
    18:00 +39°C° 0 mm 3 mps 722 mmHg 32%
    19:00 +36°C° 1.3 mm 3 mps 723 mmHg 42%
    20:00 +34°C° 1.3 mm 3 mps 724 mmHg 53%
    21:00 +31°C° 1.3 mm 3 mps 724 mmHg 63%
    22:00 +30°C° 0.5 mm 3 mps 725 mmHg 67%
    23:00 +29°C° 0.5 mm 3 mps 725 mmHg 72%

    Day after tomorrow, 23 May, Wednesday

    Time Temperature Precipitation Wind Pressure Humidity
    00:00 +28°C° 0.5 mm 3 mps 725 mmHg 76%
    01:00 +28°C° 0 mm 3 mps 725 mmHg 77%
    02:00 +28°C° 0 mm 4 mps 725 mmHg 78%
    03:00 +28°C° 0 mm 4 mps 725 mmHg 79%
    04:00 +27°C° 0 mm 3 mps 725 mmHg 80%
    05:00 +27°C° 0 mm 3 mps 725 mmHg 81%
    06:00 +27°C° 0 mm 2 mps 725 mmHg 82%
    07:00 +28°C° 0 mm 2 mps 726 mmHg 75%
    08:00 +30°C° 0 mm 3 mps 726 mmHg 68%
    09:00 +33°C° 0 mm 4 mps 726 mmHg 61%
    10:00 +35°C° 0 mm 4 mps 726 mmHg 52%
    11:00 +38°C° 0 mm 3 mps 726 mmHg 43%
    12:00 +40°C° 0 mm 3 mps 726 mmHg 34%
    13:00 +40°C° 0 mm 3 mps 725 mmHg 32%
    14:00 +41°C° 0 mm 2 mps 724 mmHg 30%
    15:00 +41°C° 0 mm 2 mps 723 mmHg 29%
    16:00 +40°C° 0.1 mm 2 mps 723 mmHg 33%
    17:00 +38°C° 0.1 mm 2 mps 723 mmHg 36%
    18:00 +36°C° 0.1 mm 2 mps 723 mmHg 40%
    19:00 +35°C° 0.2 mm 2 mps 724 mmHg 44%
    20:00 +34°C° 0.2 mm 3 mps 724 mmHg 48%
    21:00 +33°C° 0.2 mm 3 mps 725 mmHg 53%
    22:00 +30°C° 1.4 mm 3 mps 725 mmHg 62%
    23:00 +29°C° 1.4 mm 3 mps 726 mmHg 71%

    24 May, Thursday

    Time Temperature Precipitation Wind Pressure Humidity
    00:00 +27°C° 1.4 mm 3 mps 727 mmHg 80%
    01:00 +27°C° 0.1 mm 3 mps 726 mmHg 82%
    02:00 +27°C° 0.1 mm 3 mps 726 mmHg 83%
    03:00 +26°C° 0.1 mm 3 mps 725 mmHg 85%
    04:00 +26°C° 0 mm 2 mps 725 mmHg 86%
    05:00 +26°C° 0 mm 2 mps 726 mmHg 88%
    06:00 +26°C° 0 mm 1 mps 726 mmHg 89%
    07:00 +27°C° 0 mm 1 mps 726 mmHg 81%
    08:00 +29°C° 0 mm 2 mps 726 mmHg 73%
    09:00 +30°C° 0 mm 2 mps 727 mmHg 65%
    10:00 +34°C° 0 mm 2 mps 726 mmHg 54%
    11:00 +37°C° 0 mm 2 mps 726 mmHg 43%
    12:00 +40°C° 0 mm 2 mps 726 mmHg 32%
    13:00 +40°C° 0 mm 2 mps 725 mmHg 29%
    14:00 +41°C° 0 mm 2 mps 724 mmHg 27%
    15:00 +41°C° 0 mm 2 mps 723 mmHg 25%
    16:00 +40°C° 0 mm 2 mps 723 mmHg 27%
    17:00 +39°C° 0 mm 2 mps 723 mmHg 29%
    18:00 +38°C° 0 mm 2 mps 723 mmHg 30%
    19:00 +37°C° 0 mm 2 mps 724 mmHg 34%
    20:00 +35°C° 0 mm 2 mps 724 mmHg 39%
    21:00 +32°C° 0 mm 2 mps 725 mmHg 43%
    22:00 +32°C° 0 mm 2 mps 725 mmHg 47%
    23:00 +31°C° 0 mm 3 mps 725 mmHg 52%

    25 May, Friday

    Time Temperature Precipitation Wind Pressure Humidity
    00:00 +30°C° 0 mm 3 mps 725 mmHg 56%
    01:00 +29°C° 0.1 mm 3 mps 725 mmHg 62%
    02:00 +29°C° 0.1 mm 3 mps 725 mmHg 67%
    03:00 +28°C° 0.1 mm 3 mps 724 mmHg 72%
    04:00 +27°C° 0 mm 3 mps 725 mmHg 75%
    05:00 +27°C° 0 mm 3 mps 725 mmHg 77%
    06:00 +26°C° 0 mm 3 mps 725 mmHg 80%
    07:00 +28°C° 0 mm 3 mps 725 mmHg 73%
    08:00 +30°C° 0 mm 3 mps 726 mmHg 67%
    09:00 +32°C° 0 mm 4 mps 726 mmHg 60%
    10:00 +35°C° 0 mm 4 mps 726 mmHg 52%
    11:00 +37°C° 0 mm 3 mps 725 mmHg 44%
    12:00 +39°C° 0 mm 3 mps 725 mmHg 35%
    13:00 +40°C° 0 mm 2 mps 724 mmHg 33%
    14:00 +41°C° 0 mm 2 mps 723 mmHg 30%
    15:00 +42°C° 0 mm 1 mps 722 mmHg 28%
    16:00 +40°C° 0 mm 1 mps 722 mmHg 30%
    17:00 +39°C° 0 mm 2 mps 722 mmHg 32%
    18:00 +38°C° 0 mm 2 mps 722 mmHg 34%
    19:00 +37°C° 0.4 mm 2 mps 723 mmHg 39%
    20:00 +35°C° 0.4 mm 3 mps 724 mmHg 44%
    21:00 +34°C° 0.4 mm 3 mps 724 mmHg 48%
    22:00 +31°C° 2.2 mm 3 mps 724 mmHg 59%
    23:00 +29°C° 2.2 mm 2 mps 724 mmHg 69%

    26 May, Saturday

    Time Temperature Precipitation Wind Pressure Humidity
    00:00 +28°C° 2.2 mm 2 mps 724 mmHg 80%
    01:00 +27°C° 1.3 mm 3 mps 724 mmHg 81%
    02:00 +27°C° 1.3 mm 4 mps 723 mmHg 82%
    03:00 +27°C° 1.3 mm 4 mps 723 mmHg 83%
    04:00 +27°C° 0 mm 4 mps 723 mmHg 84%
    05:00 +26°C° 0 mm 3 mps 724 mmHg 85%
    06:00 +26°C° 0 mm 3 mps 724 mmHg 85%
    07:00 +27°C° 0 mm 3 mps 725 mmHg 80%
    08:00 +29°C° 0 mm 3 mps 725 mmHg 75%
    09:00 +30°C° 0 mm 3 mps 726 mmHg 69%
    10:00 +33°C° 0 mm 3 mps 726 mmHg 61%
    11:00 +35°C° 0 mm 3 mps 725 mmHg 54%
    12:00 +37°C° 0 mm 3 mps 725 mmHg 46%
    13:00 +38°C° 0 mm 3 mps 724 mmHg 42%
    14:00 +39°C° 0 mm 3 mps 723 mmHg 38%
    15:00 +40°C° 0 mm 3 mps 723 mmHg 35%
    16:00 +39°C° 0 mm 3 mps 723 mmHg 37%
    17:00 +38°C° 0 mm 2 mps 723 mmHg 40%
    18:00 +36°C° 0 mm 2 mps 723 mmHg 42%
    19:00 +35°C° 0.2 mm 2 mps 723 mmHg 48%
    20:00 +34°C° 0.2 mm 3 mps 724 mmHg 53%
    21:00 +31°C° 0.2 mm 3 mps 725 mmHg 59%
    22:00 +30°C° 0.3 mm 3 mps 725 mmHg 64%
    23:00 +29°C° 0.3 mm 3 mps 725 mmHg 69%
    Show more